Weather History for KBOS - July, 2013

Change the Weather History Date:

Tuesday, July 2, 2013

  Actual Average Record
Temperature  
Mean Temperature 72 °F 72 °F  
Max Temperature 82 °F 80 °F 98 °F (1963)
Min Temperature 61 °F 64 °F 51 °F (1883)
Degree Days  
Heating Degree Days 0 0  
Month to date heating degree days 0 0  
Since 1 June heating degree days 25 55  
Since 1 July heating degree days 0 0  
Cooling Degree Days 7 8  
Month to date cooling degree days 20 15  
Year to date cooling degree days 229 181  
Since 1 June cooling degree days 191 151  
Growing Degree Days 21 (Base 50)    
Moisture  
Dew Point 66 °F    
Average Humidity 81    
Maximum Humidity 97    
Minimum Humidity 65    
Precipitation  
Precipitation T in 0.09 in 1.38 in (1986)
Month to date precipitation 0.03 0.18  
Year to date precipitation 24.78 22.02  
Sea Level Pressure  
Sea Level Pressure 30.15 in    
Wind  
Wind Speed 9 mph (SSE)    
Max Wind Speed 18 mph    
Max Gust Speed 22 mph    
Visibility 8 miles    
Events Rain    
T = Trace of Precipitation, MM = Missing Value Source: NWS Daily Summary

Daily Weather History Graph

Daily Weather History Graph

Search for Another Location

Airport or City:

Trip Planner

Search our weather history database for the weather conditions in past years. The results will help you decide how hot, cold, wet, or windy it might be!

Date:

Astronomy

Jul. 02, 2013 Rise Set
Actual Time 5:11 AM EDT 8:24 PM EDT
Civil Twilight 4:37 AM EDT 8:58 PM EDT
Nautical Twilight 3:52 AM EDT 9:43 PM EDT
Astronomical Twilight 2:58 AM EDT 10:36 PM EDT
Moon 1:16 AM EDT (7/2) 3:32 PM EDT (7/2)
Length of Visible Light 16h 21m
Length of Day
15h 12m
Waning Crescent, 26% of the Moon is Illuminated
Jul 2
Waning Crescent
Jul 8
New
Jul 15
First Quarter
Jul 22
Full
Jul 29
Last Quarter

Hourly Weather History & Observations

Time (EDT) Temp. Heat Index Dew Point Humidity Pressure Visibility Wind Dir Wind Speed Gust Speed Precip Events Conditions
12:02 AM 73.4 °F - 69.8 °F 88% 30.08 in 10.0 mi South 6.9 mph - N/A   Mostly Cloudy
12:54 AM 73.0 °F - 70.0 °F 90% 30.08 in 10.0 mi South 6.9 mph - N/A   Overcast
1:54 AM 73.0 °F - 70.0 °F 90% 30.09 in 10.0 mi South 9.2 mph - N/A   Mostly Cloudy
2:01 AM 73.4 °F - 69.8 °F 88% 30.09 in 10.0 mi South 9.2 mph - N/A   Mostly Cloudy
2:42 AM 73.4 °F - 69.8 °F 88% 30.10 in 10.0 mi South 9.2 mph - N/A   Overcast
2:54 AM 73.0 °F - 70.0 °F 90% 30.09 in 10.0 mi South 8.1 mph - N/A   Overcast
3:17 AM 73.4 °F - 69.8 °F 88% 30.09 in 10.0 mi South 9.2 mph - N/A   Overcast
3:54 AM 73.0 °F - 70.0 °F 90% 30.09 in 10.0 mi South 6.9 mph - N/A   Overcast
4:54 AM 73.0 °F - 70.0 °F 90% 30.11 in 10.0 mi South 5.8 mph - 0.00 in   Overcast
5:54 AM 73.0 °F - 70.0 °F 90% 30.12 in 10.0 mi South 6.9 mph - N/A   Overcast
6:52 AM 73.4 °F - 69.8 °F 88% 30.13 in 10.0 mi SSW 9.2 mph - N/A   Overcast
6:54 AM 73.0 °F - 70.0 °F 90% 30.14 in 10.0 mi SSW 9.2 mph - 0.00 in Rain Light Rain
7:37 AM 73.4 °F - 69.8 °F 88% 30.14 in 10.0 mi South 9.2 mph - 0.00 in   Overcast
7:54 AM 73.9 °F - 70.0 °F 87% 30.14 in 10.0 mi South 8.1 mph - 0.00 in Rain Light Rain
8:12 AM 75.2 °F - 71.6 °F 89% 30.14 in 10.0 mi South 8.1 mph - 0.00 in   Overcast
8:54 AM 75.9 °F - 71.1 °F 85% 30.14 in 10.0 mi South 9.2 mph - 0.00 in   Overcast
10:54 AM 79.0 °F - 71.1 °F 77% 30.14 in 10.0 mi South 10.4 mph - N/A   Overcast
11:54 AM 80.1 °F 83.6 °F 71.1 °F 74% 30.15 in 10.0 mi South 11.5 mph - 0.00 in Rain Light Rain
12:10 PM 80.6 °F 84.6 °F 71.6 °F 74% 30.15 in 10.0 mi SSW 11.5 mph - 0.00 in Rain Light Rain
12:54 PM 80.1 °F 83.8 °F 72.0 °F 76% 30.15 in 10.0 mi SSW 8.1 mph - 0.00 in Rain Light Rain
1:54 PM 82.0 °F 85.9 °F 70.0 °F 67% 30.15 in 10.0 mi WSW 10.4 mph - 0.00 in Rain Light Rain
2:54 PM 81.0 °F 85.2 °F 72.0 °F 74% 30.14 in 10.0 mi South 10.4 mph - 0.00 in   Overcast
3:44 PM 69.8 °F - 62.6 °F 78% 30.15 in 8.0 mi ENE 10.4 mph - N/A   Overcast
3:54 PM 70.0 °F - 64.0 °F 81% 30.14 in 9.0 mi ENE 10.4 mph - N/A   Overcast
4:54 PM 70.0 °F - 63.0 °F 78% 30.14 in 9.0 mi East 10.4 mph - N/A   Mostly Cloudy
5:54 PM 66.0 °F - 61.0 °F 84% 30.16 in 9.0 mi East 12.7 mph - N/A   Mostly Cloudy
6:44 PM 64.4 °F - 60.8 °F 88% 30.17 in 7.0 mi ENE 9.2 mph - N/A   Mostly Cloudy
6:54 PM 64.9 °F - 61.0 °F 87% 30.18 in 7.0 mi East 11.5 mph - N/A   Mostly Cloudy
7:01 PM 64.4 °F - 60.8 °F 88% 30.18 in 6.0 mi ENE 11.5 mph - 0.00 in Rain Light Rain
7:37 PM 62.6 °F - 60.8 °F 94% 30.19 in 5.0 mi East 10.4 mph - 0.00 in   Overcast
7:54 PM 63.0 °F - 60.1 °F 90% 30.19 in 5.0 mi East 10.4 mph - 0.00 in   Overcast
8:54 PM 62.1 °F - 59.0 °F 90% 30.19 in 6.0 mi East 8.1 mph - N/A   Overcast
9:29 PM 60.8 °F - 59.0 °F 94% 30.21 in 3.0 mi East 4.6 mph - N/A   Overcast
9:54 PM 61.0 °F - 59.0 °F 93% 30.22 in 3.0 mi NE 3.5 mph - N/A   Overcast
10:12 PM 62.6 °F - 60.8 °F 94% 30.22 in 2.0 mi ENE 4.6 mph - N/A   Overcast
10:54 PM 63.0 °F - 60.1 °F 90% 30.20 in 5.0 mi NE 4.6 mph - N/A   Overcast
11:54 PM 63.0 °F - 60.1 °F 90% 30.20 in 7.0 mi NE 5.8 mph - N/A   Overcast